Tracking 31027 objects as of 19-Jul-2025
HD Live streaming from Space Station
objects crossing your sky now

STARLINK-11199

Track STARLINK-11199 now!
10-day predictions
STARLINK-11199 is classified as:


NORAD ID: 60404
Int'l Code: 2024-141G
Perigee: 366.2 km
Apogee: 367.7 km
Inclination: 53.2 °
Period: 91.7 minutes
Semi major axis: 6737 km
RCS: Unknown
Launch date: August 10, 2024
Source: United States (US)
Launch site: AIR FORCE EASTERN TEST RANGE (AFETR)
Your satellite tracking list
STARLINK-3674
Track 1 satellite(s)




NASA's NSSDC Master Catalog

Two Line Element Set (TLE):
1 60404U 24141G   25199.60815272 -.00000130  00000-0  37835-5 0  9999
2 60404  53.1586 160.5024 0001108  89.6055 270.5090 15.69694747 54971
Source of the keplerian elements: AFSPC